Location: Launay
(47.2429°N, 1.5727°E)
Time: 07:08:28
(UTC+00:00)

Meteor 1-11 Rocket - Pass Details

Date: 19 May 2025
Orbit: 829 x 915 km, 81.2° (Epoch: 18 June)

Event Time Altitude Azimuth Distance (km) Brightness Sun altitude
Rises 22:43:33 0° 345° (NNW) 3,386 8.4 -21.1°
Reaches altitude 10° 22:45:59 10° 342° (NNW) 2,447 7.3 -21.2°
Maximum altitude 22:51:24 60° 264° (W) 952 3.9 -21.5°
Enters shadow 22:53:19 38° 203° (SSW) 1,244 4.2 -21.6°
